Theta_e
344 343 340 335 332 331 331 333 335 337 338 338 338 337 336 334 334 330 322 317 315 315 315 314 314 316 316 314 313 313 312 312 312 312 311 311 311 311 310 310 309 309 308 309 309 310 310 310 314 318 323 329 331 331 332 331 329 329 330 332 332 332 334 335 336 336 337 337 337 336 337 337 337 337 337 336 334 331 329 330 332 333 334 334 334
344 341 338 334 331 330 330 333 336 339 339 339 339 338 336 335 335 333 329 323 318 315 316 315 314 315 316 315 314 313 312 312 312 312 311 311 311 311 310 310 309 308 309 309 310 310 310 310 313 316 320 327 330 331 331 330 329 329 331 332 332 333 333 334 334 335 336 336 335 336 337 337 337 337 336 335 333 330 328 327 329 332 334 334 333
343 339 337 333 331 330 331 334 337 340 340 339 339 338 337 336 335 335 334 332 326 319 317 316 314 314 315 315 314 314 313 312 312 311 311 311 311 310 310 309 309 308 309 309 309 310 310 310 312 314 318 325 329 329 329 329 329 329 330 330 330 330 331 331 332 333 334 335 336 336 337 336 336 336 334 332 329 327 325 325 326 330 332 333 332
342 338 335 332 330 329 331 335 338 341 340 340 339 338 338 336 336 334 335 334 333 327 321 318 316 314 315 315 314 314 313 313 312 311 311 311 311 310 310 310 309 309 309 309 309 310 310 310 311 313 317 324 328 328 329 328 328 328 329 329 330 330 331 331 331 332 333 334 334 334 335 335 335 334 332 329 326 322 319 321 323 326 328 329 330
342 337 334 331 330 330 332 336 339 341 341 340 339 339 338 337 337 335 335 334 335 333 328 324 320 316 314 315 314 314 313 313 312 312 311 312 311 310 310 310 309 309 309 309 309 310 310 310 310 312 315 322 326 327 327 327 328 329 330 331 332 332 333 333 332 332 332 332 332 331 332 333 334 332 330 325 320 318 316 317 319 321 323 326 327
341 336 333 331 330 331 334 337 339 341 341 341 340 339 338 338 338 337 336 335 335 334 333 331 328 321 316 315 315 314 313 313 312 312 311 311 312 311 310 310 309 309 309 309 309 309 310 310 310 311 314 320 325 325 325 327 330 331 331 331 332 332 333 333 333 333 333 333 333 333 331 330 331 330 328 324 317 315 315 315 316 317 319 322 323
340 336 332 331 330 331 335 337 339 341 342 341 341 340 339 338 338 338 337 336 335 334 334 334 334 329 321 316 315 315 314 314 313 312 311 311 312 311 310 310 310 309 309 309 309 309 310 310 310 311 312 317 323 324 325 329 330 330 330 331 332 332 333 334 334 334 334 334 334 334 331 328 327 327 327 323 318 315 314 313 313 314 315 317 319
339 336 332 331 330 331 334 337 339 341 342 342 341 340 339 339 339 339 338 337 337 336 335 334 334 334 328 321 317 316 315 315 313 311 311 311 312 312 311 311 311 310 310 310 309 309 309 310 309 310 311 315 320 323 325 328 329 329 330 331 331 331 333 333 334 334 334 334 333 332 328 323 321 324 324 318 315 316 314 313 312 313 313 313 314
339 335 332 330 330 331 334 337 339 340 342 342 341 341 340 340 339 339 338 338 337 337 336 335 334 334 333 328 323 318 316 315 314 312 311 311 312 312 311 311 312 311 311 310 310 310 310 310 309 310 311 314 316 319 325 328 329 330 330 330 330 331 332 333 334 333 333 333 331 329 324 319 318 322 323 315 311 314 313 313 312 312 312 313 314
338 335 332 330 329 331 333 335 339 340 342 342 341 341 340 340 340 339 338 338 337 337 337 336 334 333 333 331 327 322 318 316 315 313 311 311 312 313 312 312 313 312 311 311 311 311 310 309 309 309 311 313 314 320 326 329 329 328 328 328 328 329 330 332 333 333 333 332 329 326 322 319 316 317 319 315 311 311 310 312 311 311 313 314 315
336 334 331 329 329 330 333 334 337 340 341 342 342 341 341 340 340 339 338 338 337 337 337 336 334 332 332 331 329 326 321 316 316 315 312 311 311 313 314 313 314 314 313 313 312 311 311 309 309 309 310 311 315 322 327 327 328 328 329 329 330 330 329 329 330 331 331 331 329 326 320 315 312 312 314 313 311 310 309 311 310 311 313 312 313
334 332 329 329 329 330 332 333 336 339 340 341 341 341 341 340 340 339 338 338 337 337 336 335 334 332 331 330 330 328 324 319 318 319 315 312 313 314 315 316 316 315 313 314 313 312 311 310 309 309 309 311 317 323 327 329 330 331 332 332 332 332 331 330 330 330 329 328 327 321 315 310 309 311 315 314 312 311 310 310 311 311 312 311 313
336 332 328 328 328 329 330 331 334 336 339 339 340 340 340 340 340 339 338 337 337 337 334 333 332 331 331 331 332 330 327 322 322 323 318 315 315 315 316 317 318 317 315 314 314 313 312 311 309 309 310 314 320 326 329 331 332 332 332 332 332 332 332 332 331 331 326 321 318 313 309 309 309 312 315 315 313 312 310 309 309 310 312 313 313
340 336 327 326 329 330 328 328 330 332 334 335 337 338 339 339 339 338 338 338 338 336 332 331 332 332 334 334 334 332 329 324 322 322 319 316 316 317 318 319 319 319 317 315 315 314 313 312 310 309 311 317 323 329 331 332 331 331 330 331 331 332 331 331 331 330 324 315 311 309 309 309 309 310 312 312 311 311 309 309 309 309 312 314 313
343 337 326 326 331 330 327 325 326 328 329 330 332 334 337 338 338 338 338 338 338 334 331 331 333 334 336 336 335 332 328 323 321 320 318 317 318 318 320 320 321 320 318 316 315 314 313 313 311 310 312 319 325 329 331 331 331 331 331 332 333 332 332 332 332 330 321 312 309 309 310 309 309 309 310 309 310 310 309 309 309 310 314 314 312
343 337 326 327 331 329 327 324 324 325 325 325 327 330 333 335 336 337 337 338 336 331 330 332 335 337 338 337 335 332 327 324 321 320 318 319 319 320 321 322 322 321 320 318 316 315 314 313 313 310 311 318 324 327 330 331 331 332 333 334 334 333 332 331 330 329 319 310 309 309 309 310 310 309 310 309 309 310 310 310 309 311 313 313 312
343 335 326 328 330 328 327 326 324 323 323 322 324 327 331 334 335 335 336 336 332 329 331 333 336 338 338 337 336 334 330 327 324 320 319 320 322 321 322 323 323 322 321 319 318 316 315 315 314 313 311 315 322 327 330 332 332 333 334 334 334 333 332 330 330 328 319 310 308 309 309 310 309 309 310 310 310 310 310 310 309 310 310 311 312
342 333 326 330 329 328 329 329 327 325 324 322 324 327 330 333 334 334 333 331 329 330 332 334 337 338 337 335 335 333 331 330 326 322 319 321 324 323 323 324 322 323 323 321 320 318 317 316 316 315 313 313 319 327 330 332 333 333 333 334 334 333 333 332 331 329 321 312 308 308 308 309 309 310 310 310 310 310 310 310 309 309 309 309 310
344 333 327 330 329 329 330 331 330 328 327 324 325 327 328 329 330 330 329 328 328 331 332 334 337 337 335 333 333 332 331 331 328 325 321 321 325 324 324 325 323 322 324 323 322 320 319 319 318 318 317 315 316 322 328 330 330 331 331 333 333 332 333 332 330 329 323 314 309 308 307 308 309 309 309 310 310 310 309 309 309 309 309 309 308
344 333 327 329 329 329 330 330 330 329 328 325 325 325 325 325 327 327 327 328 330 331 333 335 336 335 333 333 332 333 332 332 330 328 324 320 323 324 325 326 323 322 325 325 324 323 321 321 321 321 322 321 317 319 325 328 329 331 331 332 333 332 332 331 331 331 323 314 310 309 308 308 308 308 308 309 309 310 309 308 308 308 308 308 308
342 332 328 329 328 329 330 330 330 329 327 326 325 325 324 323 324 326 327 330 332 332 334 335 335 333 333 332 332 333 333 332 330 329 326 321 320 324 326 326 323 322 324 326 326 325 324 324 323 324 325 326 323 319 323 329 331 331 332 333 332 330 330 331 332 329 320 314 312 311 310 309 308 308 307 308 309 308 309 308 308 308 308 308 308
339 330 328 329 327 328 330 329 329 328 327 326 326 326 325 323 323 325 327 331 332 333 333 334 333 332 331 330 330 331 333 332 330 329 328 324 321 325 327 324 323 323 324 326 326 326 326 326 324 325 325 326 326 323 324 328 328 329 331 333 331 329 330 330 329 326 319 315 315 313 312 311 310 309 308 307 307 307 307 307 307 308 308 308 308
337 329 328 329 327 328 329 328 328 328 327 326 326 327 327 324 324 324 326 328 330 332 333 333 332 330 328 328 328 330 332 331 329 329 330 328 324 325 327 324 322 322 323 325 326 326 326 326 325 325 324 324 326 326 326 326 328 330 331 332 331 330 330 330 328 326 322 318 317 316 314 312 311 310 309 308 307 306 306 306 306 307 307 307 307
337 331 329 331 329 328 328 328 328 329 327 327 327 329 328 324 324 324 325 326 328 330 332 331 329 328 327 326 328 330 332 331 331 331 330 330 328 327 327 323 319 319 320 323 326 325 325 326 325 325 324 324 326 327 327 328 330 329 328 331 332 331 331 330 329 328 324 320 319 318 317 315 312 311 310 310 309 307 307 306 306 305 306 306 306
340 336 335 335 333 330 328 327 329 330 329 329 330 329 328 325 324 325 326 325 325 326 327 326 326 326 326 325 327 329 331 331 331 333 332 331 331 331 330 326 323 321 318 320 325 324 324 324 324 324 324 325 328 329 329 331 330 325 324 331 333 331 330 329 329 329 324 322 323 322 320 319 316 314 312 311 310 309 309 308 307 307 306 306 306
342 340 340 339 338 334 329 327 329 331 331 331 331 330 329 327 325 326 325 322 323 323 322 322 323 325 325 325 327 328 330 331 331 333 334 333 333 333 333 331 327 323 320 319 321 322 322 322 322 322 323 325 329 331 333 333 329 325 323 329 332 331 329 329 329 329 326 324 325 324 324 322 320 317 315 314 313 312 311 310 309 309 308 308 307
342 342 341 340 340 337 330 328 329 332 333 333 331 331 331 328 326 326 324 322 324 324 323 324 324 323 325 328 329 328 330 331 331 333 334 333 334 334 333 330 323 320 321 319 318 319 319 320 321 321 323 327 330 332 333 331 327 326 325 327 329 328 328 330 329 329 329 326 325 326 325 324 322 320 319 317 316 314 313 313 312 311 310 309 309
342 342 341 340 340 339 334 330 331 332 334 334 332 332 332 330 328 328 326 324 326 327 327 329 328 326 328 330 330 329 330 331 332 333 333 333 332 331 330 325 320 321 322 319 318 318 319 320 320 320 324 328 332 332 332 331 327 327 327 327 327 326 327 329 328 329 330 328 326 326 325 325 324 323 322 320 319 317 316 315 315 313 312 311 310
342 341 340 340 340 339 336 334 334 335 335 335 333 333 333 332 331 330 328 326 327 330 331 332 331 330 329 329 330 330 331 331 332 333 333 333 330 330 331 327 325 328 327 323 323 324 324 325 324 324 327 329 332 332 332 331 330 329 329 328 328 327 327 327 327 328 329 328 327 326 326 325 325 324 323 321 320 319 317 317 316 315 314 313 312
342 341 340 339 339 339 337 337 337 337 336 335 334 333 334 334 332 331 330 329 329 332 333 332 332 331 330 329 331 331 331 331 332 332 332 331 330 332 333 331 330 332 332 330 329 330 330 329 329 330 330 331 332 331 331 331 330 330 329 328 329 328 326 327 327 328 329 327 326 327 326 326 325 324 323 322 320 319 318 317 317 316 315 314 313
342 342 340 340 340 339 338 338 338 338 337 336 335 334 335 335 333 332 331 331 331 333 332 330 330 331 330 330 332 332 332 331 331 332 330 330 332 333 333 332 332 333 334 333 330 330 330 330 331 331 331 331 331 331 330 330 330 330 329 329 330 329 328 327 326 326 328 327 327 327 327 327 326 324 323 321 319 319 319 319 318 318 317 315 313
343 342 341 340 340 339 338 338 338 338 338 337 336 335 335 335 334 333 332 332 333 332 331 328 329 331 331 331 332 332 331 331 331 331 330 331 333 333 333 333 333 332 333 332 330 330 331 331 331 332 333 332 330 330 330 331 330 330 330 330 330 330 328 327 325 325 326 326 326 327 326 327 326 324 322 320 319 320 320 320 321 319 318 316 313
343 342 342 341 339 338 338 338 338 339 338 337 336 336 335 335 335 334 333 333 332 331 329 328 328 331 331 331 332 331 331 331 332 331 330 333 333 332 333 333 332 331 331 330 329 329 331 331 331 332 333 331 330 330 331 332 331 330 330 329 329 329 328 326 325 325 325 325 325 325 325 326 325 324 322 319 319 320 321 323 325 322 318 316 313
343 343 342 341 340 338 338 338 338 339 338 337 336 336 335 336 336 334 334 333 332 331 330 329 329 331 331 331 331 331 330 331 332 331 331 333 332 330 331 332 331 330 330 330 329 330 331 331 331 333 333 330 330 331 331 331 330 330 330 329 330 330 328 327 326 325 325 325 326 326 325 326 326 325 323 321 321 322 323 326 328 325 319 315 313
343 343 341 341 339 338 339 338 338 338 338 337 336 336 336 336 335 334 334 332 332 332 331 330 330 330 330 331 331 331 331 331 331 331 332 332 329 329 330 330 330 330 330 330 331 331 331 332 332 333 332 331 332 332 331 331 330 330 330 329 330 330 329 328 327 327 327 326 327 326 326 326 327 326 325 324 324 325 326 327 328 326 320 317 317
343 342 340 339 338 338 338 338 337 338 338 337 336 336 336 336 335 333 333 332 332 332 332 331 330 330 330 330 331 331 331 330 331 331 331 330 328 329 330 330 329 330 331 330 331 332 331 332 333 332 332 331 332 331 331 331 331 331 331 330 329 330 330 329 329 328 328 327 327 326 326 326 327 328 326 324 323 325 326 326 328 326 322 320 321
342 342 340 339 338 337 338 338 337 338 338 337 337 337 336 336 334 333 333 332 332 332 332 331 330 329 330 331 331 332 331 330 331 330 329 329 329 329 328 329 328 329 331 331 331 332 330 331 333 332 332 332 332 332 331 331 331 331 331 330 329 330 329 329 329 329 328 327 326 326 326 327 328 328 327 325 322 323 324 325 327 327 325 324 324
342 342 340 339 338 338 338 338 338 338 338 337 336 336 336 335 335 334 333 332 332 332 332 332 331 329 330 331 332 332 331 331 330 327 326 328 329 328 326 328 327 327 331 332 331 332 331 331 333 332 332 332 332 331 331 330 331 331 330 329 329 328 328 327 328 328 328 327 326 326 327 327 328 328 327 326 322 320 322 325 327 327 326 326 326
342 342 340 340 339 338 338 338 338 338 338 337 336 336 335 336 335 334 333 332 332 332 332 332 331 331 331 330 331 331 331 329 329 327 326 327 328 328 327 328 327 329 332 331 330 331 332 331 332 331 330 332 331 331 331 331 331 331 330 329 329 329 328 326 326 327 327 326 326 326 326 327 327 327 327 326 324 321 321 323 325 326 326 326 326
343 342 340 339 339 339 338 338 338 338 337 337 336 336 336 336 335 334 333 333 333 332 333 332 332 332 331 330 329 330 330 329 328 329 328 325 326 327 328 327 328 331 332 330 329 331 333 331 329 329 329 330 331 331 331 331 331 331 330 329 329 328 328 327 326 327 327 326 326 326 326 326 326 326 326 326 326 325 324 323 322 323 324 325 326
343 342 340 339 339 339 338 338 338 338 337 337 336 335 335 335 335 334 333 333 333 332 332 332 331 331 331 329 329 330 330 329 327 328 327 325 325 327 327 327 330 332 331 329 329 330 331 330 327 328 329 330 331 332 331 330 331 330 330 329 328 327 327 327 327 327 327 326 326 326 325 325 325 325 325 326 326 326 326 323 320 320 322 324 324
343 342 339 339 337 336 338 338 338 337 337 336 334 332 333 334 334 333 332 332 332 332 331 330 330 330 330 330 330 330 329 328 327 327 327 326 325 326 327 329 331 331 330 329 330 330 330 329 328 329 329 330 331 332 332 331 330 329 328 329 328 328 327 327 327 327 327 327 327 326 326 326 325 324 325 325 326 326 326 324 321 320 320 322 323
341 339 339 339 337 335 337 338 336 336 336 334 331 330 330 332 333 332 332 332 332 331 330 330 330 330 330 330 330 329 327 327 326 327 328 327 326 327 329 331 331 330 330 330 331 331 329 328 328 329 329 330 331 331 331 331 329 328 328 328 328 328 327 328 328 327 327 327 327 327 327 326 326 325 325 325 326 326 326 326 324 323 322 323 324
338 338 338 337 336 335 335 335 334 335 334 331 329 329 329 331 333 333 332 332 332 331 330 330 331 331 329 328 329 329 328 327 326 327 328 327 327 328 330 331 331 330 329 329 329 329 328 327 328 329 328 329 330 331 331 331 329 328 328 328 328 327 327 328 328 327 327 327 326 327 327 326 326 325 325 326 326 326 326 326 325 325 325 325 325
336 335 333 332 334 334 333 332 332 332 332 329 327 330 331 332 333 333 332 332 332 331 331 330 330 330 328 327 327 327 327 327 326 326 328 328 328 330 330 331 331 329 328 329 329 328 326 327 329 329 329 329 330 330 331 331 329 328 328 328 328 328 328 327 327 327 328 327 327 327 327 326 326 326 326 326 326 326 325 325 325 325 325 325 325
333 331 329 329 330 330 331 330 329 328 328 328 327 330 333 333 333 333 332 332 331 331 330 329 328 328 328 328 326 325 327 328 328 329 330 330 329 330 330 330 330 329 328 329 329 327 326 327 329 330 330 331 330 329 329 330 330 329 328 328 328 328 327 326 326 327 328 327 327 327 327 326 326 326 327 327 326 326 326 325 325 325 325 325 325
332 330 329 328 327 329 330 330 329 329 329 330 329 331 333 333 332 332 332 331 330 330 330 327 327 327 328 328 327 326 328 330 330 330 330 329 329 330 330 330 330 329 329 330 330 329 328 328 328 330 331 331 330 329 328 329 330 330 329 328 328 328 326 325 326 327 327 327 327 327 326 326 326 327 327 327 326 326 326 326 326 326 326 325 325
332 329 328 327 327 330 331 331 332 331 331 332 331 332 333 332 332 332 332 330 329 330 329 327 327 328 328 327 327 328 330 330 329 329 329 329 329 330 329 330 330 329 329 329 330 330 330 329 329 330 330 330 330 330 329 328 329 329 329 328 328 328 326 326 326 326 327 327 327 327 327 327 327 327 327 326 326 326 326 326 326 326 326 325 325
332 328 326 326 327 328 328 330 331 329 331 333 332 331 330 331 332 332 331 330 330 330 329 327 328 327 326 326 328 330 330 329 330 331 331 330 329 329 329 330 330 329 329 329 329 330 331 331 330 329 329 329 329 330 329 327 327 328 327 327 327 327 327 327 327 326 326 326 327 327 327 327 327 326 326 326 326 326 326 326 326 326 325 325 324
332 329 327 326 327 326 326 330 328 325 328 329 330 329 328 330 331 331 331 330 331 330 328 328 327 325 325 327 329 329 329 329 331 332 330 328 328 329 330 330 331 330 330 331 330 330 330 330 330 330 329 329 329 329 329 328 328 328 328 327 327 327 328 328 328 327 326 326 326 327 327 327 326 326 326 326 326 326 326 326 325 325 325 325 324
333 331 330 329 328 327 327 329 328 324 324 324 326 327 325 327 330 331 330 329 330 329 328 328 326 325 327 329 329 329 330 330 331 331 329 328 328 329 330 330 331 330 330 331 330 330 329 329 330 329 329 329 329 329 329 329 329 329 328 328 328 327 327 327 327 328 326 326 327 327 327 326 325 325 325 325 326 325 325 325 324 323 323 324 323
Wind_Speed
22 22 23 23 23 24 25 25 25 24 24 24 23 22 21 20 20 21 20 19 18 17 18 19 20 20 19 19 19 19 19 19 19 19 19 18 18 18 18 17 17 16 16 16 16 17 17 17 17 16 16 18 19 19 19 20 20 21 21 22 22 22 21 21 21 20 20 19 19 19 19 19 18 18 18 18 17 17 16 17 18 20 21 20 19
25 24 22 23 23 24 25 25 25 24 24 24 23 22 21 20 20 21 20 19 17 17 17 18 19 19 19 18 18 18 18 19 18 18 18 18 18 18 17 17 16 16 16 16 16 17 17 17 17 17 17 18 19 19 20 21 22 22 22 23 22 22 22 21 20 19 19 18 18 18 18 18 17 17 16 16 15 15 14 15 16 18 19 19 18
25 25 23 23 22 24 25 25 25 24 24 23 23 22 21 20 20 20 20 19 17 16 16 17 17 17 18 17 17 17 17 17 17 17 18 18 18 18 17 17 16 16 16 16 16 17 17 18 18 18 19 20 20 20 21 22 23 22 22 22 22 22 21 20 19 18 18 17 16 16 17 17 16 15 14 13 13 13 12 13 14 16 17 17 17
24 25 24 23 22 23 25 25 25 24 23 23 22 21 21 20 19 19 19 19 18 16 15 16 16 16 16 16 16 16 15 15 16 16 17 17 17 17 17 17 16 16 16 16 16 17 17 18 19 19 20 21 22 22 22 23 24 25 25 25 25 25 24 22 20 17 16 16 15 13 13 14 15 13 13 12 11 12 12 12 12 13 14 15 16
22 24 24 24 23 23 25 25 24 24 23 22 22 21 20 19 18 18 18 18 18 17 15 14 15 15 15 14 15 15 15 14 15 16 17 17 17 17 17 16 16 15 15 16 16 17 18 19 19 19 21 22 23 23 23 26 28 29 28 27 25 25 24 23 21 18 16 14 12 12 10 10 12 11 10 11 11 12 12 12 11 11 12 14 15
21 25 25 25 24 24 25 25 24 24 22 21 21 20 19 18 17 17 17 17 17 17 15 14 13 14 14 14 14 14 14 13 14 16 16 17 17 17 16 16 15 15 15 16 16 16 18 19 19 19 21 22 23 24 25 28 30 29 27 25 24 23 21 20 18 16 15 12 10 10 10 6 8 9 8 9 10 11 11 11 10 10 11 13 15
21 25 25 25 24 25 25 24 24 23 22 20 20 19 18 18 17 16 16 16 16 16 15 14 12 12 13 13 13 13 13 12 13 16 16 16 17 17 17 16 15 14 15 16 16 16 18 18 19 19 20 22 23 25 27 28 29 28 27 25 23 21 19 17 15 13 10 8 6 6 9 5 4 9 8 8 9 10 11 10 11 10 10 11 13
22 25 25 25 24 25 24 24 23 22 21 20 19 18 18 17 16 15 15 15 15 15 14 14 12 12 12 13 13 13 12 11 13 15 16 16 16 17 17 16 15 14 15 16 16 16 17 18 19 20 20 22 23 25 26 27 28 27 25 24 23 21 18 15 13 11 8 6 4 4 7 5 6 10 9 10 11 10 10 10 10 11 11 11 11
24 25 25 25 24 24 24 24 22 22 21 19 19 18 18 17 16 15 15 15 15 15 14 13 12 12 12 12 12 12 11 11 12 13 15 16 16 17 17 16 15 14 15 16 16 16 17 18 19 20 21 22 23 24 26 27 27 26 24 24 23 22 19 16 13 11 9 7 4 4 8 8 9 12 11 11 12 11 10 9 9 10 10 11 10
26 26 25 25 25 25 23 23 22 21 20 19 18 18 18 17 15 15 15 15 15 14 13 12 12 11 11 12 12 11 11 11 11 12 14 14 15 16 16 16 14 14 15 15 16 16 17 18 19 20 21 22 24 26 28 27 26 25 25 24 23 21 18 16 13 11 9 5 2 3 7 8 8 11 10 10 12 11 10 10 10 10 11 12 12
27 26 26 26 25 24 23 22 21 20 20 19 18 17 17 16 15 15 15 15 15 14 13 12 11 11 11 11 11 11 11 11 10 11 12 13 15 16 16 16 15 14 15 15 15 15 16 17 18 19 21 23 25 28 29 27 26 25 24 23 22 19 16 14 12 11 7 3 0 4 8 7 10 11 11 11 12 12 12 12 12 13 13 12 12
26 25 26 26 25 24 23 22 21 20 19 18 17 16 16 16 15 15 15 15 14 13 13 12 11 11 10 11 11 11 10 10 10 10 11 12 13 15 16 15 15 15 15 15 15 15 16 17 17 18 20 24 27 29 28 27 25 24 23 22 21 18 15 12 10 9 5 1 1 4 6 10 12 13 12 12 12 12 14 14 14 14 14 13 14
22 22 25 26 25 24 23 21 20 19 18 17 16 16 15 16 15 15 15 14 14 13 12 11 10 10 9 9 10 11 11 11 10 10 10 10 12 14 15 14 15 15 14 14 14 15 15 16 16 17 21 25 27 28 27 26 25 24 23 22 20 17 13 9 9 7 5 4 4 5 7 11 13 13 13 13 14 14 16 16 16 15 14 15 14
17 20 24 25 25 23 22 21 20 19 17 17 16 16 15 15 15 15 14 13 13 12 12 11 9 9 9 9 10 11 11 11 10 9 9 9 11 13 14 14 14 14 14 14 14 15 15 15 15 17 20 24 26 27 27 26 25 24 22 21 17 14 10 8 9 6 6 6 7 7 7 9 12 13 13 14 15 15 16 16 15 14 14 14 14
13 19 25 25 24 22 22 21 20 19 17 17 16 16 16 15 15 15 14 13 12 12 12 10 9 9 10 11 11 11 10 9 9 9 8 9 10 11 13 13 13 13 13 14 15 15 14 14 15 16 19 22 24 26 27 25 23 22 21 20 17 13 8 6 7 5 6 7 7 7 6 9 12 12 13 14 14 15 15 15 14 14 13 14 15
11 20 26 25 25 23 22 21 20 19 18 17 17 17 16 16 15 14 14 13 13 12 11 10 9 11 11 11 11 10 8 7 7 8 8 9 10 10 11 12 12 13 13 14 15 15 14 14 14 15 17 20 22 25 25 22 21 21 21 20 17 12 7 5 6 7 7 7 7 7 6 8 11 12 13 13 14 14 15 15 14 14 14 15 15
11 20 27 25 25 24 23 22 20 19 19 18 18 17 16 16 15 14 13 13 12 11 10 10 11 12 12 11 10 8 6 6 6 7 9 10 10 9 9 11 12 12 13 14 14 14 14 14 14 14 16 18 21 23 23 21 21 21 21 20 15 9 6 5 6 8 9 8 7 6 6 6 8 11 12 13 13 14 14 14 14 14 14 15 15
13 21 26 24 25 25 24 23 21 20 20 20 19 17 16 16 14 13 13 12 11 11 10 11 13 13 12 10 8 7 6 6 6 5 8 10 11 9 7 9 12 12 12 13 13 13 13 13 13 14 14 16 19 20 20 21 20 20 21 20 13 6 4 5 6 8 8 7 7 6 6 5 6 9 11 12 13 12 13 13 13 13 14 14 14
14 22 25 23 25 25 24 23 22 21 21 20 19 18 17 15 14 13 12 12 11 11 11 12 14 12 10 9 7 7 6 6 6 5 7 10 11 9 7 8 11 12 12 13 12 12 12 12 13 13 14 15 16 16 17 19 19 19 18 16 11 5 2 3 4 7 8 7 7 7 7 6 6 8 10 11 11 12 12 13 13 14 14 14 14
14 24 26 24 24 24 25 23 23 22 21 21 20 19 17 16 15 14 14 12 12 12 12 13 13 11 9 8 8 7 7 7 6 5 6 9 11 10 8 8 10 12 12 13 12 12 12 12 12 13 13 14 14 15 17 19 19 19 16 13 9 5 2 2 4 7 8 5 6 7 7 6 6 7 9 10 11 11 11 12 12 13 13 13 13
17 26 26 25 25 25 25 23 23 22 22 21 20 20 18 17 17 16 15 13 13 13 14 14 12 10 9 8 8 8 7 6 5 4 5 7 11 11 10 8 9 12 12 13 13 12 11 11 11 11 12 13 14 15 17 19 18 16 15 13 7 3 1 3 4 6 6 5 5 6 6 6 7 8 8 9 10 10 10 10 11 11 11 12 12
21 27 25 25 26 25 24 23 23 23 23 22 21 21 19 19 18 17 16 15 14 14 14 13 12 11 10 9 8 7 6 5 4 4 4 6 10 11 10 7 8 11 12 13 13 12 11 10 10 10 11 12 13 14 15 15 13 10 12 11 5 1 2 3 3 4 4 5 5 5 5 6 6 7 7 8 9 9 9 9 9 10 10 10 10
24 27 26 25 26 25 24 23 24 23 23 23 22 21 20 20 19 18 17 16 15 14 14 13 12 10 9 9 8 7 6 5 4 4 4 5 7 9 8 6 7 9 10 12 13 12 11 10 10 9 10 11 12 12 12 11 9 8 9 9 5 1 1 3 3 4 4 3 4 4 4 5 5 5 6 6 7 8 8 8 9 9 9 9 9
25 26 26 24 24 25 24 24 24 24 24 24 23 22 20 20 19 19 18 17 16 15 14 12 11 10 10 10 9 8 7 6 6 6 5 5 6 7 7 6 7 8 10 13 14 13 12 10 9 9 9 9 10 10 10 9 7 7 7 7 4 2 1 3 4 4 5 3 3 3 4 5 4 4 4 5 6 7 7 8 9 9 9 9 9
27 27 27 25 24 25 25 26 24 24 24 24 23 22 21 20 20 19 18 17 16 15 14 12 11 10 10 10 10 9 8 7 8 7 6 5 6 6 5 5 6 7 9 12 14 13 12 10 9 9 8 8 8 8 7 5 6 5 4 6 5 4 3 4 5 3 4 3 2 3 3 4 4 3 4 5 6 6 7 7 8 8 8 8 8
31 30 29 26 24 24 26 26 25 24 24 23 22 22 21 21 20 18 18 17 17 16 15 14 13 12 11 10 10 10 9 9 9 8 6 5 5 4 5 4 3 5 8 11 12 12 11 10 9 8 7 7 7 6 4 4 5 5 3 5 6 6 5 6 6 2 3 3 3 2 2 3 4 4 4 4 5 5 6 6 7 7 7 7 8
33 32 29 27 24 23 26 26 25 24 23 22 22 23 22 21 21 19 18 18 18 17 16 15 14 13 11 10 10 11 10 9 9 8 6 4 4 3 3 2 2 5 8 10 11 11 10 10 10 9 9 9 7 7 3 7 4 5 4 4 6 7 7 8 8 5 2 3 3 2 2 3 3 4 4 4 4 5 5 5 6 6 6 6 7
34 33 32 29 24 22 24 25 25 24 24 23 23 23 22 21 19 18 16 18 19 17 16 15 13 13 11 11 11 11 11 10 10 9 7 5 3 3 2 3 5 5 9 11 11 10 10 11 11 11 11 9 7 5 6 7 3 3 3 4 7 8 9 9 8 7 4 2 2 1 0 2 3 3 4 4 4 4 5 5 6 6 6 6 7
33 33 32 27 23 22 23 25 26 25 25 24 24 23 22 21 18 16 15 17 20 17 16 14 12 13 12 12 12 11 12 11 10 9 9 7 6 4 2 4 7 6 7 9 9 8 8 9 8 8 8 8 7 7 9 8 5 2 2 4 7 8 10 9 7 7 5 3 2 1 1 1 2 3 3 4 3 4 5 5 6 7 7 7 7
32 29 25 23 23 24 25 26 27 26 25 25 25 23 21 21 17 15 16 17 18 17 16 14 12 13 13 13 13 12 11 11 11 11 10 9 7 5 4 5 5 5 5 6 8 7 7 8 6 7 7 8 9 10 10 8 9 6 3 3 5 7 8 7 6 6 6 4 3 2 0 1 2 3 4 4 4 5 6 7 8 8 8 8 7
27 24 22 24 26 26 26 27 27 26 25 26 26 23 21 21 18 16 17 17 17 16 15 13 12 13 14 14 13 12 11 12 13 12 11 10 9 7 7 8 7 6 6 5 6 6 7 7 7 8 9 11 10 9 9 8 8 6 4 4 4 6 7 6 5 5 7 5 4 2 1 2 3 4 5 5 5 7 9 10 10 10 10 9 8
22 22 23 26 27 27 28 27 28 27 25 26 26 23 21 20 19 18 17 16 16 15 14 13 13 14 15 14 14 13 12 13 13 13 12 12 12 11 10 10 9 9 7 5 5 6 8 7 7 9 9 11 9 9 8 6 6 4 4 5 5 6 7 6 5 5 6 5 4 2 1 2 4 5 5 6 7 9 10 10 11 11 10 9 8
20 21 23 26 27 27 28 28 29 29 26 26 24 22 21 19 19 19 17 16 17 16 15 14 15 16 15 14 14 15 14 14 14 14 13 12 12 12 11 11 10 9 7 6 8 8 8 7 8 9 8 7 8 9 6 4 5 3 4 5 6 7 7 7 6 4 4 4 3 2 2 2 3 5 6 6 7 8 9 9 10 10 10 9 9
21 21 21 25 27 28 30 30 31 30 27 26 23 22 22 20 20 19 18 17 17 17 16 17 17 17 16 15 15 15 15 15 16 15 14 12 12 12 12 12 11 10 8 9 11 10 9 8 8 7 7 6 7 7 5 4 5 5 5 6 8 9 8 7 6 5 5 3 2 3 3 3 4 5 7 7 7 7 7 8 8 8 10 11 11
21 20 21 24 27 29 32 32 32 32 29 26 24 23 23 22 21 20 19 18 17 17 17 18 18 17 17 16 15 15 16 17 17 16 14 14 13 12 13 12 12 11 10 11 12 11 10 8 7 6 5 5 5 6 6 5 6 7 7 7 8 9 8 7 7 7 6 4 3 3 2 3 4 5 7 7 7 8 8 8 8 8 10 12 13
20 19 21 23 26 30 31 32 32 32 30 27 25 24 24 22 21 20 19 18 17 16 16 17 17 17 17 16 16 16 16 18 18 17 15 14 13 12 12 12 11 11 10 11 11 11 10 8 8 6 5 5 4 5 6 5 6 8 9 8 8 8 7 7 7 8 6 5 4 2 3 3 4 5 6 6 7 8 8 8 8 9 10 11 12
17 17 23 24 27 29 30 32 32 32 31 28 27 26 24 22 20 20 19 18 17 17 16 17 17 17 17 16 16 15 16 18 18 17 16 14 14 12 11 11 11 12 10 10 10 10 8 7 8 7 7 7 5 5 5 5 8 9 8 7 7 7 6 6 7 7 6 5 4 4 5 5 6 6 6 6 6 7 8 8 9 9 9 8 8
16 17 23 25 27 26 28 31 32 32 31 29 29 26 23 21 19 19 19 18 18 17 16 17 17 17 17 16 15 15 16 18 17 17 17 14 13 12 12 11 12 13 10 8 8 7 7 7 7 7 7 7 7 7 6 7 9 8 7 7 6 6 6 5 6 7 6 6 5 6 6 6 6 7 6 6 6 6 8 9 9 9 8 7 7
18 19 24 26 25 24 27 30 30 31 31 30 30 26 23 21 19 19 20 20 19 18 18 18 18 17 17 15 15 16 17 17 16 15 16 14 12 12 14 13 13 14 9 8 9 8 7 8 7 7 7 6 6 8 9 10 9 9 9 9 7 7 7 6 6 6 6 6 6 6 7 7 7 7 7 7 7 7 8 9 10 10 9 8 7
18 19 24 25 25 26 27 27 28 31 31 30 27 25 23 21 20 20 21 20 19 18 19 18 18 17 16 15 15 16 17 17 16 14 14 14 13 14 15 14 13 12 9 10 11 10 8 8 9 8 7 7 7 8 10 10 12 13 11 10 10 9 8 7 6 6 6 7 7 7 7 8 8 8 8 8 8 8 8 9 9 10 9 8 7
18 18 22 24 25 27 26 25 29 32 31 29 25 22 21 21 21 20 20 20 19 19 19 19 18 17 16 15 14 16 17 17 16 15 14 13 14 14 14 14 12 10 10 11 11 10 9 8 9 10 8 8 9 9 10 11 13 15 14 13 11 10 9 8 8 7 7 6 7 7 7 8 9 9 9 9 8 8 8 8 8 9 9 8 7
17 15 19 22 19 19 22 26 32 33 29 26 22 19 19 20 19 18 17 18 18 19 19 19 18 17 16 16 15 15 16 16 15 15 13 12 14 14 13 12 11 9 10 12 11 10 10 10 10 11 10 8 9 10 10 11 12 14 16 16 13 10 10 9 8 7 6 6 7 7 8 9 9 9 9 9 9 8 8 8 8 8 8 7 7
15 16 21 19 12 11 17 24 27 27 24 20 16 15 16 18 17 16 16 16 17 18 18 18 18 17 17 17 16 15 14 15 14 13 12 11 13 14 12 10 9 10 11 12 11 10 10 11 11 13 13 11 10 11 11 10 11 13 16 16 14 13 11 9 8 7 6 8 8 8 8 10 10 9 9 9 8 8 9 9 8 8 7 6 6
12 12 15 13 9 7 12 19 20 19 20 16 12 13 15 17 18 16 16 17 17 19 19 19 18 18 18 18 17 15 14 14 12 11 12 11 12 13 10 9 9 10 11 12 11 10 11 12 12 14 14 12 12 13 13 11 11 14 15 15 15 13 11 11 11 9 8 8 8 8 9 9 10 10 8 8 8 8 9 9 8 7 7 6 5
9 6 6 8 10 9 11 15 16 16 15 13 12 16 19 19 20 20 19 20 19 21 22 22 21 20 19 19 17 15 15 15 13 12 12 12 12 11 10 10 11 11 11 12 11 11 11 12 14 15 13 11 12 14 14 12 11 11 13 15 13 10 11 13 12 11 9 9 9 8 8 9 9 8 8 8 9 9 9 7 6 6 6 6 5
9 7 8 12 15 13 11 13 14 15 15 15 15 19 21 20 21 23 23 24 23 23 23 22 22 21 19 18 17 16 16 16 14 14 14 14 12 10 10 11 12 11 11 12 12 12 13 13 14 13 12 11 12 14 15 14 13 11 11 12 9 8 13 16 13 12 11 10 9 8 8 8 8 9 9 9 9 9 8 6 6 6 6 6 6
12 12 13 14 15 15 15 14 14 15 17 18 17 19 22 21 22 23 23 24 24 22 21 19 20 20 18 18 18 17 17 16 15 16 15 13 12 11 11 11 11 12 12 11 12 12 12 13 14 13 12 12 12 13 14 16 16 13 11 9 6 7 12 13 13 15 16 12 9 9 9 9 9 9 8 8 8 8 8 6 6 6 6 6 6
16 16 14 13 16 17 15 13 13 13 15 16 18 20 21 22 22 22 23 22 21 20 20 20 21 21 20 19 18 18 18 17 16 16 14 12 12 13 12 12 12 12 12 11 11 12 11 12 14 14 13 13 12 12 13 15 16 14 13 9 7 11 12 9 9 12 17 17 12 10 10 10 9 9 8 8 8 7 7 6 6 6 6 6 7
17 17 15 16 19 16 13 12 10 11 14 16 17 17 18 20 22 22 23 22 20 20 20 21 22 21 20 19 19 19 19 18 16 16 15 13 14 14 13 13 13 13 12 12 12 12 12 12 13 14 14 14 12 11 12 14 14 14 14 11 11 16 14 11 9 9 14 18 15 13 13 12 11 10 10 9 9 8 8 8 8 7 8 8 8
18 19 17 18 19 15 14 13 10 10 15 17 18 17 15 19 23 23 24 23 21 21 21 22 22 22 20 20 20 20 18 18 17 17 15 14 15 15 14 14 13 13 12 13 13 13 13 12 11 12 13 13 13 12 12 13 13 14 14 12 14 17 16 15 13 12 13 16 16 17 15 13 13 12 11 9 9 10 9 8 8 7 7 7 8
19 20 19 18 19 18 16 13 11 14 17 17 17 17 15 19 23 24 24 23 23 23 23 23 23 22 22 21 21 20 18 17 18 16 14 13 15 15 14 15 14 13 13 12 12 13 13 12 11 12 12 12 13 13 13 12 13 14 14 13 14 15 15 15 15 15 15 15 17 18 14 12 13 13 12 10 8 9 9 6 4 5 6 5 7
Wind_Direction
165 163 159 153 151 147 146 146 146 146 143 141 136 132 129 126 125 124 125 127 131 134 135 136 137 136 135 134 133 132 129 127 124 121 118 115 113 112 108 105 101 98 96 94 93 92 92 93 98 99 101 109 112 109 107 106 105 105 105 103 98 94 90 88 90 92 94 95 92 91 92 92 91 90 90 89 86 85 84 85 86 83 79 79 77
164 163 161 154 154 149 148 148 148 148 145 142 137 134 130 127 126 125 126 126 129 131 133 134 137 138 137 137 135 133 130 127 125 123 121 119 117 115 111 108 104 101 100 97 94 93 94 95 97 98 98 105 110 109 106 105 104 103 102 100 96 91 87 84 83 86 89 92 93 93 92 92 90 88 88 86 85 86 87 87 88 87 84 81 79
162 162 159 155 155 151 149 149 150 150 147 143 138 135 131 129 126 125 126 127 129 130 131 131 135 139 139 139 138 135 133 130 128 127 125 124 121 118 114 111 107 104 102 98 96 95 96 97 98 99 98 102 108 109 107 105 103 100 96 93 90 87 85 83 80 80 82 84 88 91 93 93 90 88 86 82 81 81 85 91 92 91 88 86 83
163 161 157 154 154 152 150 151 151 151 148 144 140 137 134 131 127 126 126 127 128 129 131 129 131 136 140 141 141 140 138 136 133 131 130 128 124 121 117 113 110 106 104 101 99 96 96 98 99 100 100 102 107 109 107 105 100 95 90 86 83 81 81 81 79 79 80 79 76 76 85 93 91 88 85 79 77 77 82 90 97 96 92 89 86
167 161 156 153 153 153 151 152 153 152 150 146 142 139 138 135 130 128 127 128 128 129 130 129 129 133 139 141 144 145 143 142 139 137 135 132 129 126 121 116 112 109 108 105 101 99 98 99 100 102 103 103 107 109 107 103 98 93 89 87 84 81 79 78 79 78 74 69 63 57 55 81 92 85 81 77 78 80 81 85 94 101 102 97 90
169 162 155 153 152 152 152 153 154 154 152 148 145 143 142 139 135 132 130 130 130 130 131 130 130 132 138 141 144 146 146 146 144 142 139 136 133 131 126 119 115 114 112 108 105 103 100 99 102 104 106 106 107 108 106 103 97 93 91 88 85 81 77 74 75 70 61 48 42 46 30 40 91 81 73 72 82 86 83 84 89 99 109 109 101
170 164 156 153 151 151 152 153 155 155 153 151 148 147 146 144 141 138 135 134 134 132 132 133 133 136 140 143 144 145 145 146 146 146 144 141 139 136 131 124 120 118 115 112 109 106 102 102 104 107 109 109 109 108 108 105 99 95 92 88 85 80 77 73 68 62 62 56 43 40 16 6 92 80 72 72 88 93 86 86 85 91 102 108 107
169 165 158 153 150 150 152 154 156 156 155 154 153 153 152 151 148 144 142 140 140 136 134 136 139 142 144 147 146 145 144 145 148 148 147 146 143 140 136 131 128 126 121 116 114 110 108 107 108 110 111 111 111 111 110 107 102 97 92 88 84 80 80 79 78 80 101 123 96 45 21 37 95 82 78 80 89 92 84 82 79 83 88 93 97
170 166 158 152 149 149 151 153 156 158 157 158 157 158 158 157 154 151 149 147 147 142 140 141 144 147 147 150 149 149 149 149 150 150 151 148 147 145 142 137 134 132 126 121 119 116 114 111 111 112 114 114 113 112 112 109 104 99 95 92 89 85 85 91 95 95 112 129 95 47 36 47 83 84 81 79 80 79 76 77 78 82 85 87 88
171 164 158 152 149 149 150 153 156 160 159 162 163 163 163 161 160 156 154 153 152 148 147 147 148 150 151 152 153 155 156 156 153 154 155 152 152 150 146 143 140 137 133 129 126 121 117 114 112 114 117 118 116 115 114 111 106 103 100 97 94 88 90 102 105 103 116 128 84 31 23 31 76 86 83 75 70 69 73 80 82 86 86 88 87
168 161 157 151 148 148 149 152 156 160 162 165 167 167 167 165 164 161 159 159 157 154 153 154 154 154 153 153 156 158 160 159 156 157 159 157 157 155 150 149 147 145 141 135 129 124 120 117 116 117 120 122 120 118 116 112 108 105 102 98 96 97 105 113 112 112 128 157 226 355 9 47 84 83 81 75 69 69 76 82 83 85 84 86 87
162 157 155 151 148 148 149 153 156 160 165 168 170 169 169 168 167 165 164 165 162 160 160 160 159 157 157 158 160 160 161 161 158 156 160 162 161 160 155 153 152 151 146 138 132 128 124 121 119 119 121 124 124 120 116 111 108 105 101 97 98 105 114 118 111 107 112 139 340 356 36 80 88 82 82 79 75 76 79 82 83 84 82 84 87
158 158 156 151 147 148 148 152 156 160 166 168 171 170 171 171 171 170 170 171 168 166 165 165 162 161 162 163 164 161 161 161 160 154 157 164 162 163 159 156 156 153 146 139 135 132 127 124 120 120 122 124 125 120 114 110 107 102 99 98 98 102 110 111 96 78 49 51 52 48 73 87 88 86 85 82 82 82 84 85 84 82 79 81 86
152 158 158 151 145 147 149 150 155 160 166 167 169 169 170 172 173 174 174 177 174 169 168 167 164 162 160 158 158 159 158 159 162 156 154 166 166 166 164 162 158 150 144 140 138 135 131 128 123 122 124 127 125 119 114 111 107 103 101 99 97 102 107 100 84 53 28 56 66 66 83 92 91 89 87 86 86 86 87 87 84 81 79 81 84
146 155 157 150 144 147 149 150 154 158 161 161 163 165 168 171 173 176 177 179 176 171 170 167 164 157 152 147 147 151 152 153 160 159 155 167 173 172 172 170 157 146 144 143 141 137 134 131 127 124 128 132 127 120 116 111 107 105 101 95 94 106 107 90 81 44 34 63 67 66 82 93 93 91 90 89 88 88 87 86 84 79 78 80 83
148 157 158 150 146 147 149 151 153 155 155 155 157 161 165 168 172 176 177 176 173 173 170 164 158 152 149 147 148 148 145 144 150 157 157 165 176 181 182 173 154 147 149 147 144 140 136 132 128 126 130 135 129 121 117 111 108 105 100 95 97 111 112 88 74 48 51 65 65 66 67 80 93 95 93 92 90 89 88 88 85 79 76 78 83
150 157 158 153 150 148 150 151 152 151 151 152 154 158 162 166 170 173 173 172 172 173 168 160 156 152 153 153 155 155 149 141 135 149 158 166 176 187 189 170 153 153 156 150 147 143 138 133 129 127 129 135 131 123 118 112 108 107 103 98 98 112 116 90 64 48 57 67 67 67 61 70 93 98 96 94 91 90 91 90 87 83 79 77 80
155 158 160 159 155 152 153 151 152 150 149 151 153 156 160 164 168 168 169 170 172 170 163 158 159 157 156 158 158 161 160 141 127 137 156 170 180 191 192 164 155 159 160 153 150 147 142 137 131 127 124 130 133 125 120 116 111 108 107 104 105 120 112 79 52 44 51 61 64 64 64 67 83 91 93 91 88 89 89 89 87 85 83 80 78
162 165 166 165 160 157 157 154 153 151 150 150 150 154 157 160 161 163 168 171 172 168 164 162 163 162 160 164 163 165 164 142 130 132 154 174 183 195 190 161 162 164 163 158 153 153 148 141 135 128 118 120 131 130 124 119 112 108 109 113 120 130 100 63 46 36 34 47 54 54 58 59 70 82 87 88 88 88 87 90 89 85 83 82 79
168 170 170 169 165 162 161 158 157 153 151 148 147 151 153 156 158 163 168 171 172 168 165 163 165 166 168 171 168 168 165 148 137 139 159 178 186 195 187 169 170 168 166 164 159 157 152 147 141 131 119 111 117 128 128 119 111 107 105 107 118 132 107 36 20 12 16 42 53 53 56 57 69 78 83 88 91 90 91 92 90 88 86 84 81
170 170 172 172 169 168 167 163 160 156 153 149 147 149 151 156 160 164 167 169 168 166 166 165 170 172 172 176 175 174 169 157 149 152 164 179 187 192 187 176 172 171 171 170 165 161 156 153 148 136 125 112 111 121 126 120 110 106 101 97 107 143 91 13 355 355 12 50 56 57 59 57 69 76 81 88 93 93 93 93 90 90 88 86 85
167 170 176 176 173 173 170 165 163 159 156 152 151 152 154 158 160 163 165 168 167 167 169 169 174 176 178 182 181 178 175 171 164 167 170 176 187 192 191 179 169 171 174 175 169 164 160 156 154 144 129 121 120 121 126 123 108 104 108 107 119 155 37 354 345 7 21 46 52 61 60 59 69 75 82 87 92 94 93 94 92 89 87 85 85
167 172 177 178 177 175 170 168 167 163 158 155 156 156 157 161 162 163 164 167 169 169 171 173 177 182 188 185 183 183 188 188 175 180 177 174 185 190 196 193 178 172 174 179 174 166 162 160 158 149 137 132 129 128 131 124 110 119 127 126 138 142 17 314 331 10 7 23 41 48 55 66 75 77 84 86 86 88 87 88 87 86 86 85 84
170 174 178 181 179 176 172 172 171 165 162 161 160 159 160 163 164 164 164 166 170 172 173 176 180 188 194 188 187 189 198 195 178 181 182 176 177 176 187 197 193 185 178 179 177 172 166 165 163 153 149 141 135 138 134 124 131 147 138 135 148 174 207 299 320 353 355 358 22 31 50 67 79 80 78 78 77 77 76 77 79 81 81 82 81
173 175 180 182 181 179 176 175 174 168 166 165 162 162 162 164 165 165 167 168 173 175 174 177 181 189 195 192 193 195 199 197 185 183 182 178 170 159 165 172 185 192 186 179 178 178 172 173 167 158 156 145 144 140 130 142 170 168 146 147 177 217 222 265 282 325 10 4 358 9 38 56 68 75 67 67 68 67 69 69 72 74 75 77 76
175 178 181 181 181 181 178 177 175 170 169 167 164 164 165 166 164 166 168 171 176 176 172 175 181 186 190 192 197 200 201 199 193 187 182 182 174 161 162 161 179 197 192 184 180 180 180 181 175 168 157 146 146 125 127 236 210 188 199 173 189 226 242 248 256 283 27 14 349 348 15 48 58 65 64 62 62 63 66 66 68 69 70 72 71
179 181 182 180 181 180 178 179 177 174 172 169 168 166 168 167 164 166 168 173 177 176 171 171 179 182 182 189 198 201 200 200 197 189 182 184 188 185 190 202 204 193 185 179 179 180 176 174 174 168 153 146 138 120 182 251 221 186 207 188 205 237 257 256 262 274 314 352 344 349 19 56 66 67 67 62 60 61 62 62 62 62 65 66 67
183 182 180 177 179 180 178 180 181 181 175 171 171 169 170 167 167 169 166 175 180 176 171 168 176 176 177 189 197 199 198 201 198 190 178 169 179 185 198 181 160 163 173 171 167 170 170 167 165 161 158 152 134 137 211 241 217 170 177 184 208 231 251 255 261 261 259 296 311 315 51 80 70 69 67 61 58 60 62 61 61 59 60 60 63
182 177 176 177 181 186 185 184 185 183 177 173 173 172 172 171 177 177 165 176 181 177 174 170 176 176 180 190 194 197 199 201 199 196 186 173 170 154 137 152 136 127 154 162 148 149 160 156 153 154 154 147 145 183 211 227 229 224 190 181 197 218 239 247 255 254 247 251 241 229 177 96 77 73 68 69 67 69 72 70 70 67 66 65 65
180 177 182 191 190 188 189 189 188 184 178 176 176 175 177 179 184 180 168 175 182 183 181 175 180 181 185 189 193 199 201 202 200 202 197 187 176 155 152 155 140 126 137 150 140 142 150 145 155 148 140 154 170 196 208 222 229 224 212 178 183 205 224 236 247 239 233 238 231 233 199 86 84 85 80 87 91 93 91 86 83 76 73 71 69
183 187 193 195 190 186 189 193 191 187 181 178 179 178 181 183 185 181 173 176 182 189 187 183 186 186 189 190 195 202 204 206 202 201 197 189 183 179 181 172 167 165 166 176 160 163 163 158 168 152 160 181 179 196 209 226 232 221 208 201 198 208 216 222 223 217 226 234 222 222 183 89 88 91 92 104 114 112 104 96 89 80 75 72 70
192 193 193 191 189 189 189 192 193 190 184 180 179 179 181 182 185 184 177 178 182 190 193 191 191 190 191 191 195 202 206 208 205 201 192 187 189 194 193 180 179 179 180 207 196 178 176 176 172 168 192 190 176 196 206 229 244 222 207 218 217 205 209 208 190 196 218 219 205 208 191 93 86 94 101 119 130 126 116 104 91 82 78 74 75
199 198 194 191 190 191 189 190 193 192 187 183 180 177 179 181 186 185 179 183 187 192 197 195 196 194 193 193 196 201 202 206 209 204 194 192 196 201 198 186 190 194 189 204 200 184 183 186 176 184 207 182 175 197 194 222 238 211 198 207 201 187 190 193 185 192 198 196 199 198 183 136 100 102 109 128 139 134 124 109 93 84 82 82 84
204 198 192 191 190 192 190 189 191 191 188 185 182 178 180 181 183 184 182 186 190 194 195 195 198 195 194 197 199 201 201 204 209 208 200 200 206 208 207 201 204 205 194 192 191 187 191 193 186 201 213 177 178 188 176 198 188 159 161 166 183 187 190 191 186 194 201 203 190 168 161 142 123 116 119 130 135 130 123 113 105 98 94 93 91
209 196 190 191 189 191 191 189 188 189 188 186 184 181 182 181 180 184 185 187 190 192 193 194 197 195 195 196 198 203 205 205 207 207 204 209 216 213 211 214 215 204 193 198 192 186 192 187 181 201 212 187 191 185 167 172 156 151 155 151 173 185 185 187 187 196 209 216 179 156 160 143 133 131 130 132 134 131 126 123 126 120 108 101 93
211 199 190 188 189 191 192 191 188 188 187 185 184 182 183 181 180 184 184 184 184 187 191 193 194 195 195 193 196 203 204 202 204 207 206 215 221 215 212 216 220 206 191 203 196 184 191 183 172 188 208 205 210 199 179 169 156 154 154 153 170 185 184 185 192 201 204 200 184 194 211 174 154 149 138 132 134 138 135 130 133 131 121 109 97
214 202 191 191 193 191 191 192 189 186 184 183 183 183 182 179 178 181 183 182 179 182 189 191 192 193 193 192 197 201 200 199 202 208 209 213 216 213 217 219 225 218 194 197 198 184 183 177 176 186 204 215 209 200 187 168 157 155 156 155 167 185 191 189 189 196 199 197 205 220 210 184 167 158 143 130 133 145 144 136 134 133 131 119 103
219 207 197 194 191 189 190 190 188 185 182 181 181 181 178 174 175 179 182 180 178 183 188 192 193 190 190 192 197 197 198 199 200 209 212 209 209 211 218 221 225 219 195 186 196 186 173 174 186 184 185 205 203 185 175 168 165 158 150 145 158 172 176 180 181 188 196 202 213 211 196 183 172 162 151 136 131 143 146 141 137 135 139 134 116
220 210 201 194 189 189 191 189 186 184 182 182 179 176 173 171 173 176 179 181 180 186 188 191 194 191 191 191 195 195 195 198 198 206 210 204 204 212 214 213 217 214 197 191 198 191 176 170 184 186 174 184 192 178 168 165 164 157 147 144 154 163 165 172 175 185 193 197 204 196 184 184 180 171 160 143 132 136 141 143 144 143 144 141 131
223 213 203 195 190 189 190 188 185 183 183 184 177 170 170 170 172 174 178 183 185 187 186 190 195 193 193 190 191 193 192 195 195 199 206 203 207 217 213 206 208 207 197 200 200 192 179 169 177 187 182 174 173 174 167 156 151 151 150 148 155 158 161 165 160 167 179 187 192 186 181 182 182 176 164 151 139 135 137 139 144 147 144 141 137
221 219 207 201 198 188 185 189 187 182 181 182 175 169 173 173 175 177 181 186 188 186 184 189 193 192 192 190 187 189 190 192 193 197 203 205 211 218 213 208 205 198 196 201 198 189 181 175 175 178 185 181 170 167 162 159 160 157 151 146 150 155 156 158 155 159 171 181 182 182 180 173 173 175 167 156 145 138 138 135 138 146 145 143 141
220 215 201 201 200 180 176 184 184 180 176 177 174 172 182 184 183 183 186 191 190 187 186 186 188 188 188 188 187 185 187 190 192 197 203 208 216 218 212 208 199 189 196 197 191 187 182 180 176 170 178 178 167 163 160 168 175 167 155 147 146 150 153 157 159 161 173 180 173 171 170 166 167 171 168 159 149 141 139 136 137 145 147 144 142
206 193 191 198 200 178 172 171 167 169 169 167 170 177 187 193 195 195 196 196 190 188 190 188 187 187 186 187 188 183 183 190 194 198 201 207 219 217 201 189 186 188 195 190 186 188 183 180 173 170 177 172 166 169 166 174 182 170 158 151 150 152 147 151 155 155 165 168 162 158 160 164 162 160 162 157 153 147 143 142 140 140 141 138 139
161 167 186 197 196 167 148 146 146 154 157 156 174 192 192 196 201 203 204 201 193 191 193 192 189 188 186 185 188 186 181 186 190 194 198 204 212 206 184 175 185 189 191 188 187 189 184 179 171 173 182 177 171 171 168 177 184 171 160 151 152 156 152 152 150 146 154 155 151 154 156 160 160 156 157 155 154 154 149 147 141 138 140 138 143
151 158 184 178 175 158 128 135 144 144 150 164 191 200 197 196 197 200 203 203 199 195 195 194 191 189 186 181 183 185 181 182 186 189 195 199 197 185 167 175 186 185 186 189 189 186 180 179 176 177 184 182 176 173 169 173 180 178 169 157 154 168 170 158 143 135 150 158 152 157 160 160 161 157 156 159 160 159 157 154 145 145 151 155 154
178 177 161 144 156 169 154 148 151 150 167 187 199 203 201 199 199 201 203 203 201 197 195 195 191 187 183 178 179 179 177 179 181 180 183 184 177 167 165 177 183 180 180 184 186 183 178 180 184 182 182 181 178 177 173 170 175 182 184 176 176 191 179 164 150 139 145 159 159 159 164 163 163 158 158 165 166 161 162 163 155 151 157 166 165
171 157 151 146 150 160 162 164 168 168 179 189 196 203 204 205 208 210 210 206 203 198 195 194 190 186 181 179 179 175 170 170 171 173 175 172 167 167 172 174 179 181 180 179 178 178 177 180 187 185 182 181 174 177 179 173 176 181 186 196 203 189 176 169 166 153 145 152 162 161 162 165 164 160 162 168 167 162 160 159 158 159 156 157 156
164 155 157 161 154 151 160 174 176 177 185 190 194 199 204 209 210 212 215 211 207 203 195 189 189 188 184 180 177 172 169 166 165 169 172 174 172 172 171 168 176 180 176 175 172 173 177 180 184 184 184 187 177 176 184 179 179 182 184 194 181 165 171 174 172 166 153 148 152 157 155 157 158 155 155 154 152 154 152 148 153 157 147 135 139
166 163 166 164 157 152 158 166 167 185 198 194 196 202 208 212 211 212 213 209 209 209 198 188 188 188 183 178 173 171 168 161 162 169 178 181 174 170 167 164 173 175 169 173 174 173 177 179 184 184 183 186 181 180 187 182 182 187 186 184 168 162 167 166 166 178 165 150 151 157 151 148 149 148 147 142 138 136 136 142 147 146 135 127 135
166 169 175 171 167 162 159 162 160 175 190 195 204 211 213 212 211 211 210 208 207 207 199 190 187 184 179 174 171 168 162 159 167 176 181 178 170 167 166 163 168 170 166 172 174 174 178 183 187 188 183 182 182 186 190 182 180 188 188 181 175 170 168 167 168 178 170 157 157 161 156 153 149 143 138 135 132 128 131 143 143 132 125 127 139
170 178 183 180 180 173 163 165 172 178 182 188 198 206 219 220 211 208 209 208 204 202 196 190 186 180 174 169 164 161 160 163 170 174 171 170 168 168 169 166 167 169 167 168 172 176 180 182 185 189 187 184 184 188 190 183 178 184 185 179 179 178 174 171 172 175 174 166 161 160 161 160 153 143 134 126 123 126 134 139 118 103 116 138 152